Tracking 30970 objects as of 3-Jul-2025
HD Live streaming from Space Station
objects crossing your sky now

WESTFORD NEEDLES

Track WESTFORD NEEDLES now!
10-day predictions
WESTFORD NEEDLES is classified as:


NORAD ID: 19051
Int'l Code: 1963-014EA
Perigee: 3,397.9 km
Apogee: 3,881.0 km
Inclination: 87.4 °
Period: 166.1 minutes
Semi major axis: 10010 km
RCS: 0.357 m2 (medium)
Launch date: May 9, 1963
Source: United States (US)
Launch site: AIR FORCE WESTERN TEST RANGE (AFWTR)
Your satellite tracking list
Your tracking list is empty




NASA's NSSDC Master Catalog

Two Line Element Set (TLE):
1 19051U 63014EA  25182.92598842  .00000037  00000-0  15504-1 0  9991
2 19051  87.3646 185.3025 0241268 306.5343  51.3518  8.66805726204381
Source of the keplerian elements: AFSPC